NAL605 KJQF-KIND

Flight info

Callsign NAL605
Flight time 1h 7m
Altitude FL340
Route WEAZL5 CLAWD EASEL GIIBS4
Aircraft B739/L-L/N

Departure

Time 2026-04-27 08:55
Airport Concord-Padgett Regional Airport (KJQF)

Arrival

Time 2026-04-27 10:03
Airport Indianapolis International Airport (KIND)
Time Latitude Longitude Altitude Speed Heading
2026-04-27 08:39 35.38400 -80.71311 701 ft 0 kts 284°
2026-04-27 08:48 35.38399 -80.71306 701 ft 2 kts 284°
2026-04-27 08:49 35.38395 -80.71287 701 ft 3 kts 284°
2026-04-27 08:49 35.38388 -80.71266 701 ft 3 kts 320°
2026-04-27 08:49 35.38370 -80.71260 701 ft 1 kts 14°
2026-04-27 08:50 35.38371 -80.71260 701 ft 0 kts 14°
2026-04-27 08:50 35.38372 -80.71260 701 ft 2 kts 15°
2026-04-27 08:50 35.38443 -80.71222 701 ft 16 kts 24°
2026-04-27 08:51 35.38498 -80.71191 701 ft 7 kts 26°
2026-04-27 08:51 35.38535 -80.71150 701 ft 9 kts 63°
2026-04-27 08:51 35.38576 -80.71088 701 ft 11 kts 24°
2026-04-27 08:51 35.38658 -80.71063 701 ft 14 kts 11°
2026-04-27 08:52 35.38763 -80.71038 701 ft 17 kts 11°
2026-04-27 08:52 35.38888 -80.71008 701 ft 20 kts 11°
2026-04-27 08:52 35.39024 -80.70976 701 ft 20 kts 11°
2026-04-27 08:52 35.39154 -80.70945 701 ft 19 kts 11°
2026-04-27 08:53 35.39240 -80.70924 701 ft 9 kts 18°
2026-04-27 08:53 35.39251 -80.70886 701 ft 0 kts 102°
2026-04-27 08:53 35.39243 -80.70853 701 ft 11 kts 115°
2026-04-27 08:54 35.39181 -80.70825 701 ft 9 kts 186°
2026-04-27 08:54 35.39147 -80.70831 701 ft 0 kts 190°
2026-04-27 08:55 35.38910 -80.70884 701 ft 75 kts 190°
2026-04-27 08:55 35.38140 -80.71059 701 ft 148 kts 190°
2026-04-27 08:55 35.37012 -80.71315 1208 ft 169 kts 191°
2026-04-27 08:55 35.35858 -80.71626 2138 ft 175 kts 198°
2026-04-27 08:56 35.34925 -80.72606 2662 ft 188 kts 236°
2026-04-27 08:56 35.34690 -80.74230 3051 ft 208 kts 276°
2026-04-27 08:56 35.35363 -80.75889 3472 ft 231 kts 308°
2026-04-27 08:56 35.36520 -80.77373 4112 ft 251 kts 315°
2026-04-27 08:57 35.38929 -80.80720 5791 ft 270 kts 309°
2026-04-27 08:57 35.40088 -80.82539 6757 ft 273 kts 307°
2026-04-27 08:57 35.41245 -80.84397 7644 ft 278 kts 307°
2026-04-27 08:58 35.42425 -80.86293 8539 ft 281 kts 307°
2026-04-27 08:58 35.43618 -80.88210 9411 ft 285 kts 307°
2026-04-27 08:58 35.44829 -80.90158 10280 ft 289 kts 307°
2026-04-27 08:58 35.46079 -80.92171 10843 ft 307 kts 307°
2026-04-27 08:59 35.47401 -80.94305 11399 ft 322 kts 307°
2026-04-27 08:59 35.48791 -80.96554 11947 ft 338 kts 307°
2026-04-27 08:59 35.50245 -80.98909 12472 ft 354 kts 307°
2026-04-27 08:59 35.51764 -81.01375 12973 ft 370 kts 307°
2026-04-27 09:00 35.53345 -81.03941 13444 ft 386 kts 308°
2026-04-27 09:00 35.55343 -81.06191 14001 ft 396 kts 327°
2026-04-27 09:00 35.57861 -81.07565 14811 ft 399 kts 343°
2026-04-27 09:00 35.60597 -81.08161 15574 ft 404 kts 355°
2026-04-27 09:01 35.63416 -81.08355 16331 ft 408 kts 357°
2026-04-27 09:01 35.66263 -81.08557 17046 ft 413 kts 356°
2026-04-27 09:01 35.69147 -81.08789 17746 ft 417 kts 356°
2026-04-27 09:01 35.72055 -81.09023 18423 ft 421 kts 356°
2026-04-27 09:02 35.74985 -81.09260 19079 ft 426 kts 356°
2026-04-27 09:02 35.77955 -81.09500 19721 ft 430 kts 356°
2026-04-27 09:02 35.80950 -81.09742 20341 ft 434 kts 356°
2026-04-27 09:02 35.83964 -81.09986 20928 ft 437 kts 356°
2026-04-27 09:03 35.87011 -81.10233 21485 ft 441 kts 356°
2026-04-27 09:03 35.90089 -81.10483 22018 ft 445 kts 356°
2026-04-27 09:03 35.93188 -81.10734 22520 ft 448 kts 356°
2026-04-27 09:03 35.96307 -81.10988 22998 ft 451 kts 356°
2026-04-27 09:04 35.99442 -81.11243 23449 ft 454 kts 356°
2026-04-27 09:04 36.02603 -81.11500 23880 ft 457 kts 356°
2026-04-27 09:04 36.05787 -81.11759 24284 ft 460 kts 356°
2026-04-27 09:04 36.08990 -81.12020 24669 ft 463 kts 356°
2026-04-27 09:05 36.12206 -81.12282 25031 ft 465 kts 356°
2026-04-27 09:05 36.15439 -81.12546 25372 ft 468 kts 356°
2026-04-27 09:05 36.18697 -81.12812 25705 ft 470 kts 356°
2026-04-27 09:05 36.21963 -81.13079 26019 ft 472 kts 356°
2026-04-27 09:06 36.25242 -81.13348 26321 ft 475 kts 356°
2026-04-27 09:06 36.28544 -81.13618 26612 ft 477 kts 356°
2026-04-27 09:06 36.31856 -81.13889 26888 ft 479 kts 356°
2026-04-27 09:06 36.35175 -81.14162 27151 ft 481 kts 356°
2026-04-27 09:07 36.38478 -81.14792 27332 ft 483 kts 344°
2026-04-27 09:07 36.41557 -81.16455 27628 ft 483 kts 330°
2026-04-27 09:07 36.44301 -81.18849 27912 ft 483 kts 319°
2026-04-27 09:07 36.46537 -81.21923 28220 ft 482 kts 307°
2026-04-27 09:08 36.48452 -81.25319 28531 ft 482 kts 305°
2026-04-27 09:08 36.50444 -81.28693 28842 ft 481 kts 307°
2026-04-27 09:08 36.52471 -81.31995 29146 ft 481 kts 307°
2026-04-27 09:08 36.54480 -81.35288 29443 ft 480 kts 307°
2026-04-27 09:09 36.56497 -81.38601 29737 ft 479 kts 307°
2026-04-27 09:09 36.58507 -81.41906 30025 ft 479 kts 307°
2026-04-27 09:09 36.60513 -81.45207 30308 ft 478 kts 307°
2026-04-27 09:09 36.62504 -81.48490 30585 ft 478 kts 307°
2026-04-27 09:10 36.64505 -81.51789 30854 ft 477 kts 307°
2026-04-27 09:10 36.66505 -81.55091 31120 ft 477 kts 307°
2026-04-27 09:10 36.68496 -81.58382 31385 ft 476 kts 307°
2026-04-27 09:10 36.70479 -81.61663 31641 ft 475 kts 307°
2026-04-27 09:11 36.72464 -81.64949 31891 ft 475 kts 307°
2026-04-27 09:11 36.74446 -81.68235 32135 ft 474 kts 307°
2026-04-27 09:11 36.76429 -81.71524 32373 ft 474 kts 307°
2026-04-27 09:11 36.78405 -81.74807 32616 ft 473 kts 307°
2026-04-27 09:12 36.80373 -81.78078 32857 ft 473 kts 307°
2026-04-27 09:12 36.82344 -81.81357 33103 ft 472 kts 307°
2026-04-27 09:12 36.84316 -81.84641 33348 ft 472 kts 307°
2026-04-27 09:12 36.86273 -81.87904 33591 ft 471 kts 307°
2026-04-27 09:13 36.88235 -81.91179 33832 ft 471 kts 307°
2026-04-27 09:13 36.90196 -81.94455 34007 ft 471 kts 307°
2026-04-27 09:13 36.92155 -81.97730 33996 ft 470 kts 307°
2026-04-27 09:14 36.96056 -82.04262 34000 ft 470 kts 307°
2026-04-27 09:14 36.99960 -82.10812 34000 ft 470 kts 307°
2026-04-27 09:15 37.03854 -82.17358 34001 ft 470 kts 307°
2026-04-27 09:15 37.07753 -82.23925 34001 ft 470 kts 307°
2026-04-27 09:16 37.11639 -82.30484 34001 ft 470 kts 306°
2026-04-27 09:16 37.15531 -82.37064 34001 ft 470 kts 306°
2026-04-27 09:17 37.18783 -82.42574 34002 ft 475 kts 306°
2026-04-27 09:17 37.22685 -82.49196 34001 ft 470 kts 306°
2026-04-27 09:18 37.26568 -82.55798 33999 ft 470 kts 306°
2026-04-27 09:18 37.30435 -82.62387 34001 ft 470 kts 306°
2026-04-27 09:19 37.34308 -82.68998 34001 ft 470 kts 306°
2026-04-27 09:19 37.38168 -82.75601 34001 ft 470 kts 306°
2026-04-27 09:20 37.42033 -82.82225 34001 ft 470 kts 306°
2026-04-27 09:20 37.45887 -82.88843 34001 ft 470 kts 306°
2026-04-27 09:21 37.49745 -82.95481 34001 ft 470 kts 306°
2026-04-27 09:21 37.53599 -83.02127 34001 ft 470 kts 306°
2026-04-27 09:22 37.57443 -83.08768 34000 ft 470 kts 306°
2026-04-27 09:22 37.61289 -83.15426 34000 ft 470 kts 306°
2026-04-27 09:23 37.65125 -83.22080 34000 ft 470 kts 306°
2026-04-27 09:23 37.68962 -83.28749 34001 ft 470 kts 306°
2026-04-27 09:24 37.72796 -83.35425 34001 ft 470 kts 306°
2026-04-27 09:24 37.76620 -83.42099 34001 ft 470 kts 306°
2026-04-27 09:25 37.80440 -83.48779 34001 ft 470 kts 306°
2026-04-27 09:25 37.84260 -83.55472 34001 ft 470 kts 306°
2026-04-27 09:26 37.88078 -83.62176 34001 ft 470 kts 306°
2026-04-27 09:26 37.91886 -83.68874 34001 ft 470 kts 306°
2026-04-27 09:27 37.95698 -83.75595 34001 ft 469 kts 306°
2026-04-27 09:27 37.99493 -83.82298 34001 ft 469 kts 306°
2026-04-27 09:28 38.03297 -83.89032 34000 ft 469 kts 306°
2026-04-27 09:28 38.07086 -83.95752 34000 ft 469 kts 306°
2026-04-27 09:29 38.10879 -84.02493 34000 ft 469 kts 305°
2026-04-27 09:29 38.14661 -84.09229 34000 ft 469 kts 305°
2026-04-27 09:30 38.18447 -84.15986 34001 ft 469 kts 305°
2026-04-27 09:30 38.22222 -84.22737 34001 ft 469 kts 305°
2026-04-27 09:31 38.25999 -84.29505 34001 ft 469 kts 305°
2026-04-27 09:31 38.29768 -84.36273 34001 ft 469 kts 305°
2026-04-27 09:32 38.33538 -84.43058 34000 ft 470 kts 305°
2026-04-27 09:32 38.37305 -84.49850 34001 ft 470 kts 305°
2026-04-27 09:33 38.41074 -84.56661 34000 ft 470 kts 305°
2026-04-27 09:33 38.44860 -84.63516 34001 ft 477 kts 305°
2026-04-27 09:34 38.48664 -84.70419 34001 ft 475 kts 305°
2026-04-27 09:34 38.52424 -84.77256 33997 ft 469 kts 305°
2026-04-27 09:34 38.54300 -84.80674 33718 ft 470 kts 305°
2026-04-27 09:35 38.56193 -84.84125 33153 ft 479 kts 305°
2026-04-27 09:35 38.58123 -84.87648 32623 ft 486 kts 305°
2026-04-27 09:35 38.60044 -84.91158 32265 ft 485 kts 305°
2026-04-27 09:35 38.61985 -84.94709 31501 ft 490 kts 305°
2026-04-27 09:36 38.63914 -84.98240 31210 ft 482 kts 305°
2026-04-27 09:36 38.65845 -85.01780 30190 ft 489 kts 305°
2026-04-27 09:36 38.67794 -85.05357 29760 ft 491 kts 305°
2026-04-27 09:37 38.71683 -85.12505 29502 ft 481 kts 305°
2026-04-27 09:37 38.73590 -85.16017 28515 ft 484 kts 305°
2026-04-27 09:37 38.75516 -85.19567 27480 ft 488 kts 304°
2026-04-27 09:37 38.77457 -85.23149 26488 ft 490 kts 304°
2026-04-27 09:38 38.79381 -85.26702 25953 ft 482 kts 304°
2026-04-27 09:38 38.81289 -85.30231 25375 ft 477 kts 304°
2026-04-27 09:38 38.83166 -85.33706 24561 ft 476 kts 304°
2026-04-27 09:38 38.85039 -85.37178 24004 ft 469 kts 304°
2026-04-27 09:39 38.86889 -85.40609 23373 ft 465 kts 304°
2026-04-27 09:39 38.88718 -85.44007 22688 ft 462 kts 304°
2026-04-27 09:39 38.90528 -85.47372 22019 ft 458 kts 304°
2026-04-27 09:39 38.92324 -85.50714 21455 ft 452 kts 304°
2026-04-27 09:40 38.94104 -85.54030 20839 ft 448 kts 304°
2026-04-27 09:40 38.95858 -85.57302 20125 ft 446 kts 304°
2026-04-27 09:40 38.97598 -85.60550 19536 ft 440 kts 304°
2026-04-27 09:40 38.99326 -85.63780 18982 ft 434 kts 304°
2026-04-27 09:41 39.01040 -85.66968 18268 ft 433 kts 306°
2026-04-27 09:41 39.03101 -85.69701 17772 ft 425 kts 322°
2026-04-27 09:41 39.05637 -85.71567 17259 ft 418 kts 337°
2026-04-27 09:41 39.08415 -85.72567 16680 ft 413 kts 350°
2026-04-27 09:42 39.11243 -85.73023 16090 ft 409 kts 353°
2026-04-27 09:42 39.14057 -85.73508 15442 ft 407 kts 349°
2026-04-27 09:42 39.16748 -85.74517 14905 ft 402 kts 339°
2026-04-27 09:42 39.19305 -85.75940 14359 ft 397 kts 335°
2026-04-27 09:43 39.21813 -85.77407 13736 ft 395 kts 336°
2026-04-27 09:43 39.24311 -85.78848 13173 ft 391 kts 336°
2026-04-27 09:43 39.26754 -85.80257 12843 ft 380 kts 336°
2026-04-27 09:43 39.29131 -85.81626 12536 ft 370 kts 336°
2026-04-27 09:44 39.31449 -85.82962 12215 ft 360 kts 335°
2026-04-27 09:44 39.33585 -85.84532 11921 ft 350 kts 326°
2026-04-27 09:44 39.35493 -85.86407 11662 ft 339 kts 321°
2026-04-27 09:44 39.37298 -85.88296 11357 ft 330 kts 321°
2026-04-27 09:45 39.39050 -85.90128 11052 ft 321 kts 321°
2026-04-27 09:45 39.40765 -85.91920 10767 ft 313 kts 321°
2026-04-27 09:45 39.42438 -85.93669 10506 ft 305 kts 321°
2026-04-27 09:45 39.44067 -85.95371 10263 ft 298 kts 321°
2026-04-27 09:46 39.45653 -85.97030 10035 ft 291 kts 321°
2026-04-27 09:46 39.47240 -85.98631 9715 ft 289 kts 323°
2026-04-27 09:46 39.48844 -86.00195 9418 ft 286 kts 323°
2026-04-27 09:46 39.50398 -86.01715 9360 ft 275 kts 323°
2026-04-27 09:47 39.51911 -86.03200 9137 ft 272 kts 323°
2026-04-27 09:47 39.53408 -86.04670 8937 ft 268 kts 323°
2026-04-27 09:47 39.54869 -86.06105 8857 ft 260 kts 323°
2026-04-27 09:47 39.56310 -86.07523 8622 ft 260 kts 323°
2026-04-27 09:48 39.57719 -86.08909 8506 ft 251 kts 323°
2026-04-27 09:48 39.59082 -86.10252 8416 ft 243 kts 323°
2026-04-27 09:48 39.60358 -86.11660 8317 ft 239 kts 316°
2026-04-27 09:48 39.61512 -86.13198 8006 ft 241 kts 314°
2026-04-27 09:49 39.62671 -86.14754 7623 ft 239 kts 314°
2026-04-27 09:49 39.63839 -86.16297 7152 ft 241 kts 314°
2026-04-27 09:49 39.65078 -86.17755 6726 ft 240 kts 325°
2026-04-27 09:49 39.66631 -86.18382 6369 ft 235 kts 354°
2026-04-27 09:50 39.68213 -86.17951 5961 ft 234 kts 22°
2026-04-27 09:50 39.69564 -86.16833 5647 ft 230 kts 37°
2026-04-27 09:50 39.70736 -86.15439 5359 ft 226 kts 45°
2026-04-27 09:50 39.71823 -86.13989 5115 ft 222 kts 46°
2026-04-27 09:51 39.72897 -86.12577 5035 ft 220 kts 45°
2026-04-27 09:51 39.73980 -86.11175 5012 ft 221 kts 45°
2026-04-27 09:51 39.75047 -86.09740 5005 ft 221 kts 47°
2026-04-27 09:51 39.76076 -86.08263 5001 ft 221 kts 48°
2026-04-27 09:52 39.77097 -86.06791 5000 ft 221 kts 48°
2026-04-27 09:52 39.78126 -86.05310 5000 ft 221 kts 48°
2026-04-27 09:52 39.79155 -86.03828 5000 ft 221 kts 48°
2026-04-27 09:52 39.80183 -86.02348 5000 ft 221 kts 48°
2026-04-27 09:53 39.81208 -86.00876 5000 ft 221 kts 48°
2026-04-27 09:53 39.82238 -85.99397 5000 ft 221 kts 47°
2026-04-27 09:53 39.83269 -85.97914 5001 ft 223 kts 47°
2026-04-27 09:53 39.84306 -85.96425 4994 ft 221 kts 48°
2026-04-27 09:54 39.85340 -85.94948 4987 ft 221 kts 47°
2026-04-27 09:54 39.86620 -85.93900 4910 ft 221 kts 19°
2026-04-27 09:54 39.88131 -85.93917 4908 ft 221 kts 346°
2026-04-27 09:54 39.89447 -85.94939 4954 ft 220 kts 322°
2026-04-27 09:55 39.90464 -85.96406 4918 ft 221 kts 301°
2026-04-27 09:55 39.91009 -85.98243 4988 ft 214 kts 288°
2026-04-27 09:55 39.91905 -86.01881 4980 ft 210 kts 288°
2026-04-27 09:56 39.92308 -86.03707 4949 ft 211 kts 280°
2026-04-27 09:56 39.92069 -86.05522 4847 ft 204 kts 245°
2026-04-27 09:56 39.91069 -86.06829 4853 ft 209 kts 214°
2026-04-27 09:56 39.89767 -86.07683 4840 ft 209 kts 204°
2026-04-27 09:57 39.88431 -86.08407 4675 ft 208 kts 202°
2026-04-27 09:57 39.87152 -86.09162 4471 ft 194 kts 207°
2026-04-27 09:57 39.86071 -86.10056 4278 ft 174 kts 216°
2026-04-27 09:57 39.85217 -86.11011 4138 ft 151 kts 223°
2026-04-27 09:58 39.84490 -86.11933 4080 ft 145 kts 224°
2026-04-27 09:58 39.83778 -86.12856 4021 ft 145 kts 225°
2026-04-27 09:58 39.83066 -86.13780 4011 ft 145 kts 225°
2026-04-27 09:58 39.82353 -86.14702 4005 ft 145 kts 225°
2026-04-27 09:59 39.81641 -86.15616 3976 ft 145 kts 224°
2026-04-27 09:59 39.80922 -86.16536 3623 ft 144 kts 224°
2026-04-27 09:59 39.80214 -86.17440 3270 ft 142 kts 224°
2026-04-27 09:59 39.79514 -86.18333 2997 ft 142 kts 224°
2026-04-27 10:00 39.78812 -86.19230 2760 ft 142 kts 224°
2026-04-27 10:00 39.78110 -86.20126 2537 ft 141 kts 224°
2026-04-27 10:00 39.77410 -86.21020 2329 ft 141 kts 224°
2026-04-27 10:00 39.76713 -86.21911 2129 ft 140 kts 224°
2026-04-27 10:01 39.76020 -86.22797 1938 ft 140 kts 224°
2026-04-27 10:01 39.75327 -86.23682 1750 ft 140 kts 224°
2026-04-27 10:01 39.74635 -86.24565 1564 ft 139 kts 224°
2026-04-27 10:01 39.73945 -86.25445 1379 ft 139 kts 224°
2026-04-27 10:02 39.73259 -86.26321 1195 ft 139 kts 224°
2026-04-27 10:02 39.72572 -86.27197 1012 ft 138 kts 224°
2026-04-27 10:02 39.71891 -86.28065 840 ft 137 kts 224°
2026-04-27 10:02 39.71244 -86.28894 809 ft 113 kts 224°
2026-04-27 10:03 39.70886 -86.29347 808 ft 36 kts 224°
2026-04-27 10:03 39.70777 -86.29450 808 ft 16 kts 204°
2026-04-27 10:03 39.70682 -86.29475 808 ft 13 kts 180°
2026-04-27 10:03 39.70601 -86.29463 808 ft 9 kts 126°
2026-04-27 10:04 39.70622 -86.29407 808 ft 8 kts 43°
2026-04-27 10:04 39.70679 -86.29344 808 ft 13 kts 32°
2026-04-27 10:04 39.70782 -86.29286 808 ft 19 kts 20°
2026-04-27 10:04 39.70902 -86.29178 808 ft 24 kts 47°
2026-04-27 10:05 39.71028 -86.29007 808 ft 28 kts 45°
2026-04-27 10:05 39.71119 -86.28887 808 ft 28 kts 45°
2026-04-27 10:05 39.71255 -86.28706 808 ft 28 kts 46°
2026-04-27 10:05 39.71389 -86.28527 808 ft 27 kts 46°
2026-04-27 10:06 39.71521 -86.28350 808 ft 27 kts 46°
2026-04-27 10:06 39.71632 -86.28194 808 ft 22 kts 64°
2026-04-27 10:06 39.71663 -86.28011 808 ft 20 kts 50°
2026-04-27 10:06 39.71762 -86.27887 808 ft 20 kts 43°
2026-04-27 10:07 39.71863 -86.27767 808 ft 20 kts 43°
2026-04-27 10:07 39.71946 -86.27667 808 ft 10 kts 43°
2026-04-27 10:07 39.71997 -86.27601 808 ft 10 kts 62°
2026-04-27 10:07 39.71975 -86.27520 808 ft 13 kts 142°
2026-04-27 10:08 39.71895 -86.27433 808 ft 16 kts 134°
2026-04-27 10:08 39.71818 -86.27332 808 ft 13 kts 134°
2026-04-27 10:08 39.71763 -86.27259 808 ft 8 kts 134°
2026-04-27 10:08 39.71737 -86.27225 808 ft 3 kts 135°
2026-04-27 10:09 39.71733 -86.27220 808 ft 0 kts 135°